Weather in Namatanai

Papua New Guinea     3°39′54″S   152°24′25″E
temp.,
°C
wind,
m/s
gust,
m/s
humid.,
%
clouds,
%
prec.,
mm/h
press.,
hPa
HPBL,
m
16 may, sun
sun1601:00+24se348845 0.4 1007241
04:00+25ese35887 0.5 1007292
07:00+26ese36818 0.0 1009442
10:00+30e466636 0.3 10091063
13:00+30e4667100 1.1 1007948
16:00+29e3572100 1.6 1006669
19:00+26ese3583100 0.6 1008272
22:00+25se2483100 1.1 1010240
17 may, mon
mon1701:00+25se348473 0.2 1008246
04:00+24se358350 0.3 1008250
07:00+26ese367811 0.2 1010349
10:00+30ese466225 0.3 10091157
13:00+29ese456983 1.1 1007932
16:00+29ese456828 1.6 1006866
19:00+26se368286 0.3 1008302
22:00+25se358299 0.3 1010310
18 may, tue
tue1801:00+25ese368315 0.3 1008295
04:00+25ese3579100 1.2 1008313
07:00+26se357952 0.0 1010371
10:00+31ese475422 0.0 10091401
13:00+31ese575948 0.0 10071278
16:00+29ese456690 0.1 1006822
19:00+26se358075 0.1 1008284
22:00+26ese238299 0.1 1009252
19 may, wed
wed1901:00+25sse2281100 0.0 1007221
04:00+24se228361 0.0 1007214
07:00+26sse11789 0.1 1009178
10:00+31ese135661 0.1 10091231
13:00+30ese336284 0.6 10061142
16:00+29e3369100 1.6 1006707
19:00+26se238397 0.7 1007187
22:00+25s2388100 1.2 1008158
20 may, thu
thu2001:00+25sse2388100 0.1 1007147
04:00+25sse128853 0.2 1006129
07:00+26se128362 0.1 1008204
10:00+30ese236028 0.1 10081176
13:00+29e237531 2.5 1006724
16:00+28e237546 4.9 1005664
19:00+25ese2386100 2.5 1007188
22:00+25ese2387100 4.4 1008186